Content
SEND FEEDBACK

Daily
Averages
Monthly
Summary
Canada

QUEBEC CITY, QUEBEC


Home > North America > Canada > Quebec
Elevation: 72 meters     Latitude: 46 48N     Longitude: 071 23W

WEATHER
 
SELECT A DAY
Number of Records: 195,749;   Date Range: 6/30/96 - 10/19/14
 
SHARE

PRINT THIS DATA

[ ← Previous Day ]
WEATHER ALMANAC - 25 OCTOBER, 2013
[ Next Day → ]
[ °F ]   °C
Weather ElementAverageHighLow
Temperature3.2 °C7 °C (3:00 pm) (3:10 pm)
Dewpoint-0.8 °C1.1 °C (5:00 pm) (7:00 pm)
Humidity73 %87 % (6:00 pm)55 % (2:00 pm)
Barometer984.1 hPa1016.6 hPa (10:00 pm) (7:00 pm)
Wind Speed18.5 km/h27.8 km/h (3:00 pm)
Wind Gust35.2 km/h (3:39 pm)
Weather ElementAverage
Visibility36.7 km
Wind DirectionWSW (242.6 °)

Weather ElementTotal
Precipitation---
Heating Degree Days23.7 (Base 18.3)
Averaged from 35 records on 25 October, 2013
WEATHER CONDITIONS BREAKOUT
WIND DIRECTION BREAKOUT
WEATHER BY HOUR - 25 OCTOBER, 2013
[ °F ]   °C
Local TimeTemperatureDewpointHumidityBarometerVisibilityWind DirectionWind SpeedGust SpeedPrecipitationEventsConditions
1:00 AM3 °C0 °C81 %1007.1 hPa24.1 kmWSW (250°)20.4 km/hMostly Cloudy
2:00 AM3.3 °C0.6 °C74 %1007.5 hPaWSW (250°)16.7 km/h
2:00 AM3 °C0 °C81 %1007.8 hPa24.1 kmWSW (240°)22.2 km/hOvercast
3:00 AM3 °C-1 °C75 %1008.5 hPa24.1 kmSW (230°)22.2 km/hOvercast
4:00 AM3 °C-1 °C75 %1009.1 hPa24.1 kmSW (230°)20.4 km/hMostly Cloudy
5:00 AM3 °C-1 °C75 %1010.2 hPa24.1 kmWSW (240°)24.1 km/hMostly Cloudy
5:00 AM2.8 °C0 °C75 %1009.8 hPaWSW (240°)14.8 km/h
6:00 AM3 °C-1 °C75 %1010.8 hPa24.1 kmWSW (240°)18.5 km/hOvercast
7:00 AM3 °C-1 °C75 %1011.5 hPa24.1 kmWSW (250°)14.8 km/hMostly Cloudy
8:00 AM3 °C-1 °C75 %1012.5 hPa48.3 kmWSW (250°)18.5 km/hMostly Cloudy
8:00 AM2.8 °C-0.6 °C72 %1011.9 hPaWSW (250°)14.8 km/h
9:00 AM3 °C-1 °C75 %1013.2 hPa48.3 kmWSW (240°)22.2 km/h31.5 km/hMostly Cloudy
10:00 AM4 °C-1 °C70 %1013.5 hPa48.3 kmWSW (250°)22.2 km/hMostly Cloudy
11:00 AM4.4 °C0 °C63 %1013.5 hPaWSW (250°)16.7 km/h
11:00 AM4 °C0 °C75 %1013.9 hPa48.3 kmWSW (240°)20.4 km/h31.5 km/hMostly Cloudy
12:00 PM5 °C0 °C70 %1014.2 hPa48.3 kmWSW (240°)22.2 km/h33.3 km/hMostly Cloudy
1:00 PM6 °C0 °C66 %1014.2 hPa48.3 kmWest (260°)20.4 km/hMostly Cloudy
2:00 PM6 °C0 °C66 %1013.9 hPa48.3 kmWSW (240°)22.2 km/hRainLight Rain Showers
2:00 PM6.7 °C0.6 °C55 %1013.5 hPaWSW (250°)13 km/h
2:37 PM6 °C1 °C70 %1013.9 hPa48.3 kmSW (230°)25.9 km/hMostly Cloudy
3:00 PM7 °C1 °C66 %1013.9 hPa48.3 kmSW (230°)27.8 km/hMostly Cloudy
3:10 PM-17.8 °C-17.8 °C48.3 kmSW (230°)25.9 km/h
3:39 PM6 °C0 °C66 %1014.2 hPa48.3 kmSW (220°)24.1 km/h35.2 km/hMostly Cloudy
4:00 PM6 °C0 °C66 %1014.6 hPa48.3 kmWSW (250°)16.7 km/hRainLight Rain Showers
5:00 PM5 °C1.1 °C68 %1014.2 hPaWNW (290°)9.3 km/h
5:00 PM5 °C1 °C76 %1014.9 hPa48.3 kmWSW (240°)22.2 km/hRainLight Rain Showers
6:00 PM3 °C1 °C87 %1015.2 hPa48.3 kmSW (220°)14.8 km/hScattered Clouds
6:18 PM2 °C0 °C87 %1015.2 hPa24.1 kmWSW (250°)11.1 km/hScattered Clouds
7:00 PM2 °C0 °C87 %1015.6 hPa24.1 kmSW (220°)11.1 km/hPartly Cloudy
8:00 PM3.3 °C-1.1 °C65 %1015.6 hPaWSW (240°)11.1 km/h
8:00 PM2 °C0 °C87 %1015.9 hPa24.1 kmSW (230°)14.8 km/hScattered Clouds
9:00 PM1 °C-2 °C81 %1016.3 hPa24.1 kmSW (230°)18.5 km/hScattered Clouds
10:00 PM2 °C-2 °C75 %1016.6 hPa24.1 kmWSW (240°)16.7 km/hMostly Cloudy
11:00 PM2.8 °C-1.7 °C63 %1016.3 hPaWest (270°)13 km/h
11:00 PM3 °C-3 °C65 %1016.6 hPa24.1 kmWest (260°)14.8 km/hMostly Cloudy
Hourly data recorded from CYQB, located 0 kilometers away from Quebec City, Quebec







STORIES FROM OUR PARTNERS